SCP
0 0 -0 0 0 0 0 0 0 0 0 0 0 0 0 0 0 0 0 0 0 0 0 0 0 0 0 0 0 0 0 0 0 0 -0 -0 -0 -0 0 0 0 0 -0 0 0 -0 -0 -0 -0
0 0 0 0 0 0 0 0 0 0 0 0 0 0 0 0 0 0 0 -0 0 0 0 0 0 0 0 0 0 0 0 0 0 -0 -0 -0 -0 -0 -0 -0 0 -0 0 0 -0 0 0 0 -0
0 0 0 0 0 0 0 0 0 0 0 0 0 0 0 -0 0 0 0 -0 0 0 0 0 0 0 -0 -0 0 0 -0 -0 -0 0 -0 -0 -0 -0 -0 -0 -0 -0 -0 0 0 0 0 0 0
0 0 0 0 0 0 0 0 0 0 0 0 0 0 0 0 0 -0 -0 -0 0 0 0 0 0 -0 -0 -0 -0 -0 -0 -0 -0 -0 -0 -0 -0 -0 -0 -0 -0 -0 0 0 0 0 0 0 0
0 0 0 0 0 0 0 0 0 0 0 0 0 0 0 0 0 -0 -0 -0 -0 0 0 0 -0 -0 -0 -0 -0 -0 -0 -0 -0 -0 -0 -0 -0 -0 -0 -0 -0 -0 -0 0 0 0 0 0 0
0 0 0 0 0 0 0 0 0 0 0 0 0 0 0 0 0 0 -0 0 0 -0 0 -0 -0 -0 -0 -0 -0 -0 -0 -0 -0 -0 -0 -0 -0 -0 -0 -0 -0 -0 -0 -0 -0 0 0 0 0
0 0 0 0 0 0 0 0 0 0 0 0 0 0 0 0 0 0 0 0 0 0 0 0 0 -0 -0 -0 -0 -0 -0 -0 -0 -0 -0 -0 -0 -0 -0 -0 -0 -0 -0 -0 0 0 0 0 0
0 0 0 0 0 0 0 0 0 0 0 0 0 0 0 -0 0 0 0 -0 0 0 0 0 -0 -0 -0 -0 -0 -0 -0 -0 -0 -0 -0 -0 -0 -0 -0 -0 -0 -0 -0 0 0 0 0 0 0
0 0 0 0 0 0 0 0 0 0 0 0 0 0 0 0 0 0 0 0 0 0 0 0 0 -0 -0 -0 -0 -0 -0 -0 -0 -0 -0 -0 0 0 -0 -0 -0 -0 0 0 0 0 0 0 0
-0 0 0 0 0 0 0 0 0 0 0 0 0 0 0 0 0 0 0 -0 -0 -0 -0 0 0 -0 -0 -0 -0 0 0 0 0 0 0 0 0 0 0 0 0 0 0 0 0 0 0 0 0
-0 0 0 0 0 0 0 0 0 0 0 0 0 0 0 0 0 0 0 0 -0 -0 0 -0 -0 0 0 0 0 0 0 0 0 0 0 0 0 0 0 0 0 0 0 0 0 0 0 0 0
0 0 0 0 0 0 0 -0 0 0 0 0 0 0 0 0 0 0 0 0 0 0 -0 0 0 0 0 0 0 0 0 0 0 0 0 0 0 0 0 0 0 0 0 0 0 0 0 0 0
0 0 0 0 0 0 0 0 0 0 0 0 0 0 0 0 0 0 0 0 0 0 0 0 0 0 0 0 0 0 0 0 0 0 0 0 0 0 0 0 0 0 0 0 0 0 0 0 0
-0 0 0 0 0 0 0 0 0 0 0 0 0 0 0 0 0 0 0 0 0 0 0 0 0 0 0 0 0 0 0 0 0 0 0 0 0 0 0 0 0 0 0 0 0 0 0 0 0
0 0 0 0 0 0 0 0 0 0 0 0 0 0 0 0 0 0 0 0 0 0 0 0 0 0 0 0 0 0 0 0 0 0 0 0 0 0 0 0 0 0 0 0 0 0 0 0 0
0 0 -0 -0 0 0 0 -0 0 0 0 0 0 0 0 0 0 0 0 0 0 0 0 0 0 0 0 0 0 0 0 0 0 0 0 0 0 0 0 0 0 0 0 0 0 0 0 0 0
0 0 -0 0 0 0 0 0 -0 0 0 0 0 0 0 0 0 0 0 0 0 0 0 0 0 0 0 0 0 0 0 0 0 0 0 0 0 0 0 0 0 0 0 0 0 0 0 0 0
0 0 0 0 0 0 0 0 -0 0 0 0 0 0 0 0 0 0 0 0 0 0 0 0 0 0 0 0 0 0 0 0 0 0 0 0 0 0 0 0 0 0 0 0 0 0 0 0 0
0 0 0 0 0 0 0 0 0 -0 0 0 0 0 0 0 0 0 0 0 0 0 0 0 0 0 0 0 0 0 0 0 0 0 0 0 0 0 0 0 0 0 0 0 0 0 0 0 0
0 0 0 0 0 0 0 0 0 -0 -0 0 0 0 0 0 0 0 0 0 0 0 0 0 0 0 0 0 0 0 0 0 0 0 0 0 0 0 0 0 0 0 0 0 0 0 0 0 0
0 0 0 0 0 0 0 -0 0 0 -0 -0 0 0 0 0 0 0 0 0 0 0 0 0 0 0 0 0 0 0 0 0 0 0 0 0 0 0 0 0 0 0 0 0 0 0 0 0 0
0 0 0 0 0 0 0 -0 -0 0 0 -0 -0 0 -0 0 0 0 0 0 0 0 0 0 0 0 0 0 0 0 0 0 0 0 0 0 0 0 0 0 0 0 0 0 0 0 0 0 0
0 0 0 0 0 0 0 0 -0 -0 0 0 -0 -0 -0 0 0 0 0 0 0 0 0 0 0 0 0 0 0 0 0 0 0 0 0 0 0 0 0 0 0 0 0 0 0 0 0 0 0
0 0 0 0 0 0 0 0 -0 -0 0 0 0 0 0 0 0 0 0 0 0 0 0 0 0 0 0 0 0 0 0 0 0 0 0 0 0 0 0 0 0 0 0 0 0 0 0 0 0
0 0 0 0 0 0 0 0 0 -0 -0 0 0 0 0 0 0 0 0 0 0 0 0 0 0 0 0 0 0 0 0 0 0 0 0 0 0 0 0 0 0 0 0 0 0 0 0 0 0
0 0 0 0 0 0 0 0 -0 -0 -0 0 0 0 0 0 0 0 0 0 0 0 0 0 0 0 0 0 0 0 0 0 0 0 0 0 0 0 0 0 0 0 0 0 0 0 0 0 0
0 0 0 0 0 0 0 0 0 0 0 0 -0 0 0 0 0 0 0 0 0 0 0 0 0 0 0 0 0 0 0 0 0 0 0 0 0 0 0 0 0 0 0 0 0 0 0 0 0
0 0 0 0 0 0 0 -0 -0 0 -0 -0 0 0 0 0 0 0 0 0 0 0 0 0 0 0 0 0 0 0 0 0 0 0 0 0 0 0 0 0 0 0 0 0 0 0 0 0 0
0 0 0 0 0 0 0 -0 -0 -0 -0 0 0 0 0 0 0 0 0 0 0 0 0 0 0 0 0 0 0 0 0 0 0 0 0 0 0 0 0 0 0 0 0 0 0 0 0 0 0
0 0 0 0 0 0 0 0 0 0 0 0 0 0 0 0 0 0 0 0 0 0 0 0 0 0 0 0 0 0 0 0 0 0 0 0 0 0 0 0 0 0 0 0 0 0 0 0 0
Wind_Speed_500mb
22 23 28 12 8 9 4 4 2 6 4 4 20 10 14 10 7 6 25 26 25 23 26 29 34 31 29 27 27 20 16 15 12 17 22 21 24 25 25 27 26 29 30 33 32 33 36 37 38
21 21 15 5 8 6 9 6 9 4 19 35 26 20 9 4 6 15 39 27 22 26 29 32 38 35 31 27 25 20 17 14 12 19 26 20 21 23 22 24 26 29 30 33 29 31 34 34 35
20 17 10 7 6 4 6 6 10 14 32 4 11 15 8 7 14 32 29 32 29 29 31 34 38 37 31 28 28 22 14 13 13 19 27 19 21 21 21 23 25 28 30 33 27 30 29 31 32
12 6 8 7 5 8 8 8 9 16 10 6 26 14 8 9 16 34 35 31 32 33 33 34 38 39 32 28 26 20 15 14 15 19 26 19 19 20 22 23 25 27 30 31 30 29 24 28 31
13 5 5 3 7 9 5 10 20 7 6 14 10 9 9 18 23 26 35 33 35 36 34 32 36 40 37 31 25 20 15 16 17 22 19 19 19 18 20 22 24 26 29 30 27 24 21 26 29
8 5 5 5 8 8 7 15 9 6 14 17 15 23 15 22 23 28 32 32 35 35 35 33 34 38 36 30 25 20 17 20 19 19 18 18 16 16 19 21 23 25 26 27 24 21 19 20 23
12 6 6 5 6 5 8 21 11 15 13 12 27 13 10 31 28 29 34 32 34 36 35 35 34 35 34 30 25 22 21 21 21 20 20 19 16 15 18 20 21 23 24 24 21 19 17 16 17
21 3 6 6 6 9 6 18 15 25 16 16 28 13 12 44 41 35 39 34 36 40 37 36 35 35 34 30 28 26 26 25 23 21 20 20 18 16 17 19 19 20 21 21 20 18 13 11 13
29 6 5 5 8 10 5 7 11 15 23 24 24 14 12 48 50 47 50 45 45 46 44 40 38 37 35 32 30 29 29 27 24 22 21 20 18 17 17 17 18 18 19 19 17 15 12 8 8
9 8 7 6 9 10 18 19 19 12 23 22 28 27 21 52 60 61 65 62 58 56 55 48 44 41 39 35 33 31 31 29 25 23 22 22 20 19 18 18 18 18 18 18 16 14 11 9 5
17 10 9 12 29 38 28 21 23 15 8 31 52 43 38 59 64 65 69 67 62 57 57 55 50 45 43 39 37 35 32 30 28 25 23 23 23 22 20 18 17 17 17 15 14 13 11 10 8
10 28 27 26 21 37 31 28 19 38 39 37 48 49 51 66 68 69 72 72 66 62 60 58 55 51 47 42 40 37 35 33 30 26 26 25 24 23 22 20 20 18 17 16 15 14 13 12 12
11 14 21 41 38 38 41 38 28 37 48 22 33 48 57 65 66 66 68 68 65 64 64 62 60 57 52 49 46 43 39 36 32 30 27 26 26 23 22 21 21 20 19 17 17 16 15 16 15
39 21 14 16 30 30 27 39 9 27 41 29 32 53 62 68 67 69 73 74 71 67 67 65 64 61 57 54 51 48 44 38 37 35 31 30 27 25 23 22 21 22 20 20 20 18 17 17 16
11 8 11 15 17 12 33 26 18 51 24 43 40 52 65 69 72 74 68 71 67 69 67 69 66 64 62 58 55 53 48 45 43 41 37 34 30 29 25 23 23 21 21 23 23 22 21 20 19
8 7 2 9 15 18 14 34 28 44 45 40 48 53 63 71 76 71 71 72 67 67 69 68 68 69 66 62 60 57 53 50 47 46 43 39 36 34 31 28 27 26 26 26 25 24 23 23 22
3 8 8 9 17 6 23 15 30 57 45 60 53 58 65 70 77 80 77 74 71 70 70 70 72 72 71 66 63 61 57 55 53 50 49 45 42 41 38 35 31 32 32 31 29 28 27 25 21
13 10 8 13 11 13 25 35 35 54 35 61 66 62 69 73 81 77 78 76 76 75 77 73 72 73 72 69 68 66 63 62 58 57 55 49 48 46 44 42 39 40 39 38 36 34 32 27 21
12 18 20 13 11 12 24 34 39 49 50 53 50 66 71 75 78 78 81 80 82 84 84 80 78 77 76 78 77 77 76 70 67 65 60 56 53 52 51 47 47 47 48 43 40 38 35 32 27
11 19 23 7 8 6 19 36 40 47 45 64 64 68 64 78 84 81 82 84 87 86 85 85 85 82 81 80 81 82 78 78 73 68 67 64 61 57 55 53 52 52 52 49 47 45 41 38 33
33 36 14 11 3 8 8 33 42 45 41 62 74 78 82 84 80 82 90 91 88 90 89 87 85 88 84 82 82 83 83 84 82 82 78 75 69 63 60 59 56 55 53 53 51 49 47 42 37
37 18 10 7 6 9 12 20 37 24 43 46 62 73 92 98 95 88 85 93 95 91 86 86 86 86 85 84 87 86 87 93 90 86 81 80 74 69 66 64 62 59 56 56 52 51 51 46 44
16 17 21 14 12 6 8 8 13 19 28 31 47 74 86 108 105 103 96 89 93 82 89 88 87 84 82 83 87 85 89 88 85 80 80 79 76 73 71 69 65 65 62 60 55 52 55 54 52
15 10 6 5 4 12 17 16 23 14 15 18 35 60 88 93 96 104 99 98 95 91 88 89 93 88 84 84 88 88 84 85 85 83 81 77 77 76 75 74 71 67 67 66 61 55 57 60 59
18 18 6 9 9 19 15 21 40 10 9 13 18 54 63 63 71 85 94 94 90 90 86 83 92 95 87 85 86 85 82 82 83 81 79 78 77 76 77 77 75 72 70 70 68 66 63 64 68
34 22 7 9 9 4 1 21 14 24 47 55 51 74 68 51 42 61 63 70 90 89 86 85 87 92 92 88 85 82 81 81 80 79 78 79 75 72 71 71 67 69 69 70 71 72 71 69 70
12 14 5 4 3 3 10 17 12 26 21 34 47 53 72 69 46 45 52 52 58 79 86 85 86 87 94 93 84 83 80 79 79 76 76 75 73 72 70 67 63 63 64 68 70 72 74 73 73
20 21 8 6 8 10 11 13 18 8 28 38 16 33 54 68 71 58 39 41 50 59 64 79 86 87 90 91 89 83 78 75 76 78 77 75 75 74 71 65 62 61 65 67 67 71 73 74 74
12 16 12 11 9 13 5 15 17 39 30 13 21 38 49 53 50 56 57 42 37 44 58 69 71 75 82 88 89 84 80 76 75 79 78 77 75 74 71 64 61 62 63 63 67 70 70 73 72
34 22 27 16 22 7 4 22 9 17 11 16 39 43 39 44 50 43 56 54 49 46 47 58 58 58 63 67 72 76 77 73 75 76 75 75 74 72 70 66 63 62 65 67 72 71 71 73 69
Wind_Direction_500mb
315 329 336 352 40 59 300 266 148 125 98 79 143 163 154 97 167 213 152 153 157 177 177 167 164 158 158 155 141 143 137 135 131 119 113 109 102 96 93 91 95 98 103 104 106 96 95 86 80
313 328 348 37 78 43 282 265 166 215 134 117 98 99 77 122 169 152 152 159 167 177 172 167 166 161 163 160 152 159 154 141 128 118 112 117 105 101 96 101 102 105 108 108 109 99 93 85 81
322 337 355 83 102 179 239 233 167 134 151 155 106 85 107 169 191 169 159 158 165 174 169 168 170 163 171 167 169 173 167 155 142 125 128 124 117 112 104 109 108 111 115 115 113 103 96 89 88
336 11 47 78 247 257 224 195 166 143 139 163 129 77 103 228 182 167 161 163 166 173 169 168 171 166 170 181 181 181 184 180 163 152 140 132 119 120 117 117 114 115 117 123 118 111 105 93 81
350 37 51 42 273 275 270 171 164 162 132 143 148 155 114 143 161 173 168 169 174 174 171 172 175 177 176 182 183 184 179 183 170 165 154 137 126 125 125 120 117 120 124 126 123 116 102 87 81
5 29 76 233 252 283 289 187 180 184 157 155 120 136 154 169 179 176 176 174 179 180 173 173 175 182 187 190 187 190 182 172 163 157 162 155 139 132 135 125 119 122 125 128 128 121 109 92 89
11 50 227 215 268 294 229 200 194 185 179 202 152 131 192 192 184 187 183 180 184 187 180 176 176 182 189 192 188 187 179 172 165 160 162 163 150 147 141 129 125 128 130 132 134 133 125 108 95
342 16 290 238 204 261 254 184 221 194 196 184 174 175 194 188 185 188 188 190 192 193 190 185 182 185 187 187 184 183 180 175 171 168 164 162 161 154 140 138 133 131 136 139 143 146 137 114 101
303 283 238 247 174 254 300 220 215 205 163 171 203 223 218 187 183 187 190 194 199 199 197 193 192 190 189 186 185 183 180 179 178 177 174 173 173 163 154 147 145 146 148 152 156 156 152 144 121
123 298 227 317 315 296 299 245 225 188 179 205 208 211 209 188 188 192 197 197 200 201 199 200 198 196 193 191 192 186 184 185 185 186 185 181 181 178 170 166 164 164 165 165 167 169 170 167 172
165 204 312 293 323 332 311 267 236 207 240 206 206 202 199 192 196 200 204 207 206 203 203 202 203 202 201 198 196 196 193 192 192 194 193 192 191 190 186 184 180 182 182 182 186 191 195 196 204
186 231 233 271 302 327 312 310 236 215 220 233 225 214 202 197 201 208 209 210 209 209 209 208 207 208 207 205 206 205 202 201 204 201 198 198 199 197 195 196 197 197 199 197 204 208 211 213 221
168 217 218 246 268 301 316 288 259 243 226 230 222 207 209 206 211 214 217 215 213 214 214 212 212 211 212 210 211 210 211 210 210 211 206 204 206 208 209 207 208 210 212 215 221 222 222 224 227
190 195 231 253 268 280 293 282 291 262 234 227 221 215 210 213 215 216 216 220 218 218 218 216 216 216 214 217 217 215 215 215 215 219 217 211 213 213 216 214 218 219 222 225 229 230 233 236 241
161 203 224 211 246 248 305 283 218 253 261 227 225 218 213 216 217 220 225 222 220 220 221 221 220 219 220 219 223 221 220 220 221 221 222 223 222 223 222 223 227 227 227 231 234 236 238 244 249
190 241 191 189 196 241 216 266 286 258 242 231 226 218 219 220 223 228 227 229 225 225 225 223 225 225 224 223 225 224 224 225 226 227 227 229 227 230 229 229 231 232 235 238 240 242 246 249 254
212 246 199 288 194 254 201 275 254 257 242 240 232 226 223 227 228 230 230 231 232 229 227 227 228 229 228 228 227 227 227 228 229 228 230 231 233 235 236 237 236 238 241 243 245 247 250 252 256
194 236 227 217 179 189 260 257 267 270 257 240 239 234 230 231 232 233 232 233 234 234 233 230 231 233 232 233 232 232 231 231 232 232 232 233 235 237 239 241 241 243 245 245 246 249 249 247 246
179 205 227 236 162 160 239 256 260 261 261 263 254 243 238 238 241 237 235 234 234 235 235 233 232 233 233 233 233 233 233 233 234 233 235 235 237 238 240 243 244 245 248 251 253 252 249 243 245
219 213 226 316 161 196 238 258 258 258 247 248 250 250 249 245 244 239 239 236 235 237 238 236 235 233 233 235 238 238 238 238 240 240 239 238 238 239 242 244 246 247 250 251 249 248 248 244 246
228 225 200 220 341 256 332 265 262 255 244 244 248 250 256 250 245 241 236 235 235 235 236 237 235 235 234 234 237 238 239 242 242 241 242 240 240 240 243 247 248 248 250 252 253 250 248 248 244
230 193 211 183 219 239 164 287 257 251 239 241 244 243 249 250 247 246 242 236 235 236 236 238 237 235 235 235 235 237 238 237 238 240 243 242 243 244 245 246 248 249 249 251 252 249 247 246 242
228 161 199 228 274 266 174 278 271 236 230 237 238 239 243 248 244 243 239 239 239 239 238 237 239 237 236 236 237 237 239 243 247 246 247 245 245 246 247 247 247 248 247 249 250 247 243 241 239
127 83 80 115 149 246 192 194 256 229 211 234 242 241 242 242 242 244 244 242 241 241 243 240 238 240 238 237 237 240 241 242 244 245 244 245 246 246 246 247 247 249 248 248 249 248 245 242 242
156 138 200 184 194 242 184 196 242 251 236 249 260 261 252 255 249 246 244 243 239 238 239 240 238 238 239 241 240 242 246 245 248 249 248 246 245 245 244 246 247 250 250 249 249 247 246 245 244
196 185 196 221 197 197 235 225 244 234 242 258 263 261 263 263 255 249 249 245 240 237 235 238 240 238 239 241 242 242 245 247 250 252 252 251 249 247 249 251 252 253 255 254 253 252 251 249 249
166 201 185 89 147 351 222 285 283 269 246 255 245 250 252 252 247 250 244 241 239 236 236 237 238 238 239 241 243 244 244 247 249 251 252 252 252 251 253 255 256 258 258 258 255 254 254 251 251
191 139 158 154 218 239 260 278 240 304 253 250 251 225 251 251 246 248 252 239 237 235 236 239 240 240 240 241 243 244 247 250 251 252 253 252 253 255 257 258 259 257 258 258 256 255 256 254 252
158 182 202 170 190 225 263 255 208 216 238 263 274 270 263 243 242 242 234 235 237 230 234 235 237 238 239 240 241 242 244 249 252 253 254 255 257 260 262 264 263 262 261 260 258 256 258 257 255
216 208 191 201 218 231 213 257 235 217 242 268 272 279 270 255 240 234 228 230 227 232 235 229 230 233 236 238 240 241 244 249 252 256 258 259 259 261 264 265 264 263 259 258 255 256 255 256 257
Wind_Speed_850mb
22 23 28 12 8 9 4 4 2 6 4 4 20 10 14 10 7 6 25 26 25 23 26 29 34 31 29 27 27 20 16 15 12 17 22 21 24 25 25 27 26 29 30 33 32 33 36 37 38
21 21 15 5 8 6 9 6 9 4 19 35 26 20 9 4 6 15 39 27 22 26 29 32 38 35 31 27 25 20 17 14 12 19 26 20 21 23 22 24 26 29 30 33 29 31 34 34 35
20 17 10 7 6 4 6 6 10 14 32 4 11 15 8 7 14 32 29 32 29 29 31 34 38 37 31 28 28 22 14 13 13 19 27 19 21 21 21 23 25 28 30 33 27 30 29 31 32
12 6 8 7 5 8 8 8 9 16 10 6 26 14 8 9 16 34 35 31 32 33 33 34 38 39 32 28 26 20 15 14 15 19 26 19 19 20 22 23 25 27 30 31 30 29 24 28 31
13 5 5 3 7 9 5 10 20 7 6 14 10 9 9 18 23 26 35 33 35 36 34 32 36 40 37 31 25 20 15 16 17 22 19 19 19 18 20 22 24 26 29 30 27 24 21 26 29
8 5 5 5 8 8 7 15 9 6 14 17 15 23 15 22 23 28 32 32 35 35 35 33 34 38 36 30 25 20 17 20 19 19 18 18 16 16 19 21 23 25 26 27 24 21 19 20 23
12 6 6 5 6 5 8 21 11 15 13 12 27 13 10 31 28 29 34 32 34 36 35 35 34 35 34 30 25 22 21 21 21 20 20 19 16 15 18 20 21 23 24 24 21 19 17 16 17
21 3 6 6 6 9 6 18 15 25 16 16 28 13 12 44 41 35 39 34 36 40 37 36 35 35 34 30 28 26 26 25 23 21 20 20 18 16 17 19 19 20 21 21 20 18 13 11 13
29 6 5 5 8 10 5 7 11 15 23 24 24 14 12 48 50 47 50 45 45 46 44 40 38 37 35 32 30 29 29 27 24 22 21 20 18 17 17 17 18 18 19 19 17 15 12 8 8
9 8 7 6 9 10 18 19 19 12 23 22 28 27 21 52 60 61 65 62 58 56 55 48 44 41 39 35 33 31 31 29 25 23 22 22 20 19 18 18 18 18 18 18 16 14 11 9 5
17 10 9 12 29 38 28 21 23 15 8 31 52 43 38 59 64 65 69 67 62 57 57 55 50 45 43 39 37 35 32 30 28 25 23 23 23 22 20 18 17 17 17 15 14 13 11 10 8
10 28 27 26 21 37 31 28 19 38 39 37 48 49 51 66 68 69 72 72 66 62 60 58 55 51 47 42 40 37 35 33 30 26 26 25 24 23 22 20 20 18 17 16 15 14 13 12 12
11 14 21 41 38 38 41 38 28 37 48 22 33 48 57 65 66 66 68 68 65 64 64 62 60 57 52 49 46 43 39 36 32 30 27 26 26 23 22 21 21 20 19 17 17 16 15 16 15
39 21 14 16 30 30 27 39 9 27 41 29 32 53 62 68 67 69 73 74 71 67 67 65 64 61 57 54 51 48 44 38 37 35 31 30 27 25 23 22 21 22 20 20 20 18 17 17 16
11 8 11 15 17 12 33 26 18 51 24 43 40 52 65 69 72 74 68 71 67 69 67 69 66 64 62 58 55 53 48 45 43 41 37 34 30 29 25 23 23 21 21 23 23 22 21 20 19
8 7 2 9 15 18 14 34 28 44 45 40 48 53 63 71 76 71 71 72 67 67 69 68 68 69 66 62 60 57 53 50 47 46 43 39 36 34 31 28 27 26 26 26 25 24 23 23 22
3 8 8 9 17 6 23 15 30 57 45 60 53 58 65 70 77 80 77 74 71 70 70 70 72 72 71 66 63 61 57 55 53 50 49 45 42 41 38 35 31 32 32 31 29 28 27 25 21
13 10 8 13 11 13 25 35 35 54 35 61 66 62 69 73 81 77 78 76 76 75 77 73 72 73 72 69 68 66 63 62 58 57 55 49 48 46 44 42 39 40 39 38 36 34 32 27 21
12 18 20 13 11 12 24 34 39 49 50 53 50 66 71 75 78 78 81 80 82 84 84 80 78 77 76 78 77 77 76 70 67 65 60 56 53 52 51 47 47 47 48 43 40 38 35 32 27
11 19 23 7 8 6 19 36 40 47 45 64 64 68 64 78 84 81 82 84 87 86 85 85 85 82 81 80 81 82 78 78 73 68 67 64 61 57 55 53 52 52 52 49 47 45 41 38 33
33 36 14 11 3 8 8 33 42 45 41 62 74 78 82 84 80 82 90 91 88 90 89 87 85 88 84 82 82 83 83 84 82 82 78 75 69 63 60 59 56 55 53 53 51 49 47 42 37
37 18 10 7 6 9 12 20 37 24 43 46 62 73 92 98 95 88 85 93 95 91 86 86 86 86 85 84 87 86 87 93 90 86 81 80 74 69 66 64 62 59 56 56 52 51 51 46 44
16 17 21 14 12 6 8 8 13 19 28 31 47 74 86 108 105 103 96 89 93 82 89 88 87 84 82 83 87 85 89 88 85 80 80 79 76 73 71 69 65 65 62 60 55 52 55 54 52
15 10 6 5 4 12 17 16 23 14 15 18 35 60 88 93 96 104 99 98 95 91 88 89 93 88 84 84 88 88 84 85 85 83 81 77 77 76 75 74 71 67 67 66 61 55 57 60 59
18 18 6 9 9 19 15 21 40 10 9 13 18 54 63 63 71 85 94 94 90 90 86 83 92 95 87 85 86 85 82 82 83 81 79 78 77 76 77 77 75 72 70 70 68 66 63 64 68
34 22 7 9 9 4 1 21 14 24 47 55 51 74 68 51 42 61 63 70 90 89 86 85 87 92 92 88 85 82 81 81 80 79 78 79 75 72 71 71 67 69 69 70 71 72 71 69 70
12 14 5 4 3 3 10 17 12 26 21 34 47 53 72 69 46 45 52 52 58 79 86 85 86 87 94 93 84 83 80 79 79 76 76 75 73 72 70 67 63 63 64 68 70 72 74 73 73
20 21 8 6 8 10 11 13 18 8 28 38 16 33 54 68 71 58 39 41 50 59 64 79 86 87 90 91 89 83 78 75 76 78 77 75 75 74 71 65 62 61 65 67 67 71 73 74 74
12 16 12 11 9 13 5 15 17 39 30 13 21 38 49 53 50 56 57 42 37 44 58 69 71 75 82 88 89 84 80 76 75 79 78 77 75 74 71 64 61 62 63 63 67 70 70 73 72
34 22 27 16 22 7 4 22 9 17 11 16 39 43 39 44 50 43 56 54 49 46 47 58 58 58 63 67 72 76 77 73 75 76 75 75 74 72 70 66 63 62 65 67 72 71 71 73 69
Wind_Direction_850mb
315 329 336 352 40 59 300 266 148 125 98 79 143 163 154 97 167 213 152 153 157 177 177 167 164 158 158 155 141 143 137 135 131 119 113 109 102 96 93 91 95 98 103 104 106 96 95 86 80
313 328 348 37 78 43 282 265 166 215 134 117 98 99 77 122 169 152 152 159 167 177 172 167 166 161 163 160 152 159 154 141 128 118 112 117 105 101 96 101 102 105 108 108 109 99 93 85 81
322 337 355 83 102 179 239 233 167 134 151 155 106 85 107 169 191 169 159 158 165 174 169 168 170 163 171 167 169 173 167 155 142 125 128 124 117 112 104 109 108 111 115 115 113 103 96 89 88
336 11 47 78 247 257 224 195 166 143 139 163 129 77 103 228 182 167 161 163 166 173 169 168 171 166 170 181 181 181 184 180 163 152 140 132 119 120 117 117 114 115 117 123 118 111 105 93 81
350 37 51 42 273 275 270 171 164 162 132 143 148 155 114 143 161 173 168 169 174 174 171 172 175 177 176 182 183 184 179 183 170 165 154 137 126 125 125 120 117 120 124 126 123 116 102 87 81
5 29 76 233 252 283 289 187 180 184 157 155 120 136 154 169 179 176 176 174 179 180 173 173 175 182 187 190 187 190 182 172 163 157 162 155 139 132 135 125 119 122 125 128 128 121 109 92 89
11 50 227 215 268 294 229 200 194 185 179 202 152 131 192 192 184 187 183 180 184 187 180 176 176 182 189 192 188 187 179 172 165 160 162 163 150 147 141 129 125 128 130 132 134 133 125 108 95
342 16 290 238 204 261 254 184 221 194 196 184 174 175 194 188 185 188 188 190 192 193 190 185 182 185 187 187 184 183 180 175 171 168 164 162 161 154 140 138 133 131 136 139 143 146 137 114 101
303 283 238 247 174 254 300 220 215 205 163 171 203 223 218 187 183 187 190 194 199 199 197 193 192 190 189 186 185 183 180 179 178 177 174 173 173 163 154 147 145 146 148 152 156 156 152 144 121
123 298 227 317 315 296 299 245 225 188 179 205 208 211 209 188 188 192 197 197 200 201 199 200 198 196 193 191 192 186 184 185 185 186 185 181 181 178 170 166 164 164 165 165 167 169 170 167 172
165 204 312 293 323 332 311 267 236 207 240 206 206 202 199 192 196 200 204 207 206 203 203 202 203 202 201 198 196 196 193 192 192 194 193 192 191 190 186 184 180 182 182 182 186 191 195 196 204
186 231 233 271 302 327 312 310 236 215 220 233 225 214 202 197 201 208 209 210 209 209 209 208 207 208 207 205 206 205 202 201 204 201 198 198 199 197 195 196 197 197 199 197 204 208 211 213 221
168 217 218 246 268 301 316 288 259 243 226 230 222 207 209 206 211 214 217 215 213 214 214 212 212 211 212 210 211 210 211 210 210 211 206 204 206 208 209 207 208 210 212 215 221 222 222 224 227
190 195 231 253 268 280 293 282 291 262 234 227 221 215 210 213 215 216 216 220 218 218 218 216 216 216 214 217 217 215 215 215 215 219 217 211 213 213 216 214 218 219 222 225 229 230 233 236 241
161 203 224 211 246 248 305 283 218 253 261 227 225 218 213 216 217 220 225 222 220 220 221 221 220 219 220 219 223 221 220 220 221 221 222 223 222 223 222 223 227 227 227 231 234 236 238 244 249
190 241 191 189 196 241 216 266 286 258 242 231 226 218 219 220 223 228 227 229 225 225 225 223 225 225 224 223 225 224 224 225 226 227 227 229 227 230 229 229 231 232 235 238 240 242 246 249 254
212 246 199 288 194 254 201 275 254 257 242 240 232 226 223 227 228 230 230 231 232 229 227 227 228 229 228 228 227 227 227 228 229 228 230 231 233 235 236 237 236 238 241 243 245 247 250 252 256
194 236 227 217 179 189 260 257 267 270 257 240 239 234 230 231 232 233 232 233 234 234 233 230 231 233 232 233 232 232 231 231 232 232 232 233 235 237 239 241 241 243 245 245 246 249 249 247 246
179 205 227 236 162 160 239 256 260 261 261 263 254 243 238 238 241 237 235 234 234 235 235 233 232 233 233 233 233 233 233 233 234 233 235 235 237 238 240 243 244 245 248 251 253 252 249 243 245
219 213 226 316 161 196 238 258 258 258 247 248 250 250 249 245 244 239 239 236 235 237 238 236 235 233 233 235 238 238 238 238 240 240 239 238 238 239 242 244 246 247 250 251 249 248 248 244 246
228 225 200 220 341 256 332 265 262 255 244 244 248 250 256 250 245 241 236 235 235 235 236 237 235 235 234 234 237 238 239 242 242 241 242 240 240 240 243 247 248 248 250 252 253 250 248 248 244
230 193 211 183 219 239 164 287 257 251 239 241 244 243 249 250 247 246 242 236 235 236 236 238 237 235 235 235 235 237 238 237 238 240 243 242 243 244 245 246 248 249 249 251 252 249 247 246 242
228 161 199 228 274 266 174 278 271 236 230 237 238 239 243 248 244 243 239 239 239 239 238 237 239 237 236 236 237 237 239 243 247 246 247 245 245 246 247 247 247 248 247 249 250 247 243 241 239
127 83 80 115 149 246 192 194 256 229 211 234 242 241 242 242 242 244 244 242 241 241 243 240 238 240 238 237 237 240 241 242 244 245 244 245 246 246 246 247 247 249 248 248 249 248 245 242 242
156 138 200 184 194 242 184 196 242 251 236 249 260 261 252 255 249 246 244 243 239 238 239 240 238 238 239 241 240 242 246 245 248 249 248 246 245 245 244 246 247 250 250 249 249 247 246 245 244
196 185 196 221 197 197 235 225 244 234 242 258 263 261 263 263 255 249 249 245 240 237 235 238 240 238 239 241 242 242 245 247 250 252 252 251 249 247 249 251 252 253 255 254 253 252 251 249 249
166 201 185 89 147 351 222 285 283 269 246 255 245 250 252 252 247 250 244 241 239 236 236 237 238 238 239 241 243 244 244 247 249 251 252 252 252 251 253 255 256 258 258 258 255 254 254 251 251
191 139 158 154 218 239 260 278 240 304 253 250 251 225 251 251 246 248 252 239 237 235 236 239 240 240 240 241 243 244 247 250 251 252 253 252 253 255 257 258 259 257 258 258 256 255 256 254 252
158 182 202 170 190 225 263 255 208 216 238 263 274 270 263 243 242 242 234 235 237 230 234 235 237 238 239 240 241 242 244 249 252 253 254 255 257 260 262 264 263 262 261 260 258 256 258 257 255
216 208 191 201 218 231 213 257 235 217 242 268 272 279 270 255 240 234 228 230 227 232 235 229 230 233 236 238 240 241 244 249 252 256 258 259 259 261 264 265 264 263 259 258 255 256 255 256 257